Wind_Speed
14 15 14 14 13 13 13 13 13 13 13 13 13 12 11 11 11 10 10 9 9 9 8 7 7 7 7 7 7 7 6 6 5 5 5 5 6 6 7 7 6 5 4
13 13 13 12 12 12 12 12 12 12 12 12 12 12 11 10 10 9 9 8 8 8 7 7 7 6 7 6 6 7 7 6 5 5 6 6 6 6 7 7 6 6 5
13 12 11 11 11 11 11 11 11 11 12 12 11 11 10 10 9 9 8 9 8 8 7 6 6 7 7 6 6 7 6 6 5 5 6 6 6 6 6 6 6 6 6
12 12 11 11 10 10 10 10 11 11 11 11 11 11 10 9 9 9 8 8 7 7 7 7 6 7 7 6 7 6 6 5 5 5 5 5 6 6 6 6 6 5 5
12 11 10 10 9 9 9 9 10 10 10 10 10 10 9 9 8 8 7 7 7 7 6 6 6 7 6 6 6 5 5 5 5 5 5 5 5 5 6 6 6 5 5
11 10 10 10 9 9 8 9 9 9 9 9 10 9 9 8 8 7 7 7 6 6 6 6 6 6 6 5 4 4 4 4 4 4 4 4 4 4 5 6 6 6 6
10 10 9 9 9 9 8 8 8 8 8 8 8 8 8 8 7 7 7 6 6 6 5 5 5 5 5 5 4 4 4 3 3 3 3 3 4 4 4 4 5 6 6
8 8 8 7 7 8 8 7 7 7 7 7 7 7 7 7 7 7 7 7 6 6 6 6 5 5 5 5 4 4 3 3 2 2 2 3 3 4 3 3 4 5 6
7 7 6 6 6 7 7 6 6 6 5 5 6 7 6 6 7 7 6 6 5 5 5 5 5 5 5 4 4 3 3 3 3 3 3 3 3 3 3 3 3 4 4
6 6 5 5 5 6 7 6 6 5 4 4 5 6 6 5 5 6 5 5 5 5 5 5 5 5 5 4 4 3 3 3 3 3 3 2 3 3 2 3 2 3 3
6 5 5 4 5 5 5 5 5 4 3 4 4 5 5 4 4 5 5 4 5 5 5 5 5 5 4 3 3 4 4 3 2 2 2 2 2 2 2 2 2 2 2
5 5 4 3 4 4 4 4 3 3 3 3 3 4 3 4 4 4 5 5 4 4 4 4 4 4 3 3 3 3 3 2 1 1 1 1 1 1 1 1 1 1 1
4 3 3 3 3 3 3 3 3 3 3 3 3 3 3 3 4 4 4 5 4 4 4 4 4 3 3 2 2 2 2 2 1 1 1 1 0 1 1 1 0 1 1
3 3 3 3 2 2 2 2 3 3 3 3 3 2 2 2 3 3 4 4 3 3 3 3 3 3 2 2 1 1 2 2 2 1 1 0 0 1 2 2 2 1 1
3 3 2 2 2 2 2 3 3 3 3 3 3 2 2 2 2 3 4 4 3 2 3 3 3 2 1 1 1 1 1 2 2 1 1 1 1 1 2 2 2 2 2
2 2 3 2 2 2 2 3 3 3 3 3 3 2 2 2 2 3 3 3 3 2 2 3 3 3 2 1 1 1 1 1 2 2 2 2 2 2 2 2 2 3 3
2 2 2 2 2 3 2 3 3 4 4 3 3 3 2 2 2 2 3 2 2 2 2 3 3 3 2 2 2 2 2 2 2 2 3 3 3 3 3 2 2 3 3
2 1 1 2 2 2 3 3 3 4 4 3 3 3 3 3 2 3 3 3 3 3 4 4 4 4 4 4 3 3 3 3 2 3 3 3 3 3 3 3 3 3 3
2 2 2 2 2 2 3 3 4 4 5 5 4 4 4 3 3 3 4 4 4 4 5 5 5 5 5 5 4 3 3 3 3 4 3 3 3 3 4 4 4 4 3
3 4 3 4 3 3 3 4 4 5 5 5 4 4 4 4 4 4 4 5 6 6 6 7 6 6 6 6 5 5 4 4 4 4 4 4 4 4 4 5 5 5 5
4 5 6 5 4 4 3 4 5 5 5 5 5 5 5 5 4 5 5 6 6 7 7 7 6 6 6 5 5 5 4 4 4 4 4 4 5 5 6 6 6 6 6
5 6 6 5 5 5 4 5 6 6 6 6 5 5 6 6 6 6 6 6 6 7 7 7 6 6 5 5 4 5 4 4 4 4 5 6 6 7 7 7 8 8 8
6 6 6 6 6 6 5 6 6 6 6 6 5 5 6 7 8 8 7 7 7 7 7 6 6 5 5 5 5 5 4 5 5 5 6 7 7 8 8 9 9 9 9
6 6 7 7 6 6 6 6 7 7 6 6 6 7 8 9 10 9 8 7 8 7 7 7 6 6 6 6 6 5 5 6 6 7 8 8 9 9 9 9 9 10 10
6 6 7 7 7 7 7 7 8 7 7 8 8 8 9 9 10 9 8 8 8 7 7 7 7 7 7 6 6 6 7 7 8 8 8 9 10 10 10 10 11 10 10
7 7 7 7 8 8 8 8 8 8 8 9 10 10 10 10 10 9 9 9 8 8 8 8 8 8 7 7 7 7 8 8 8 9 9 10 11 12 12 12 12 11 11
Wind_Direction
95 95 93 93 94 94 95 95 93 92 90 91 95 98 97 96 98 101 98 97 98 98 95 94 97 95 93 94 96 99 100 100 101 96 97 99 102 107 103 97 90 93 110
96 94 94 95 95 96 96 95 92 89 89 91 93 96 96 97 96 96 96 95 95 97 100 96 95 96 96 95 97 97 98 96 99 100 97 103 103 104 104 100 95 91 101
99 96 96 96 97 98 96 95 94 91 89 89 92 93 95 97 96 96 97 92 93 99 96 95 97 98 98 98 99 100 98 97 97 98 98 99 101 98 99 97 95 99 108
101 98 96 97 98 99 99 97 95 91 88 89 91 92 92 92 94 97 98 94 92 92 94 96 94 101 102 102 104 103 98 101 99 102 103 98 99 99 98 95 93 98 106
100 99 97 94 96 97 100 99 98 93 90 88 88 89 91 90 91 93 95 93 90 90 94 94 97 101 102 105 105 102 97 101 104 109 108 103 105 107 102 96 91 97 100
99 99 96 95 93 94 96 96 96 95 92 90 90 93 91 89 91 92 92 88 85 84 87 89 93 98 101 98 98 102 101 110 105 106 103 107 114 116 111 103 97 94 97
99 99 97 92 89 92 95 94 94 94 90 88 89 90 87 87 91 91 91 90 87 83 81 79 85 94 97 90 91 99 96 101 100 101 109 109 117 121 114 109 103 94 98
99 100 96 92 90 90 95 95 94 91 85 82 85 86 84 81 80 81 87 86 82 80 76 74 78 84 89 94 96 94 95 97 89 102 113 118 128 131 123 111 108 97 97
98 100 93 94 91 87 90 93 89 85 80 82 85 85 82 77 80 80 83 83 79 75 72 74 77 84 89 91 90 84 88 89 97 112 118 121 131 131 128 129 112 100 95
100 98 100 96 93 88 87 86 84 79 78 82 87 84 81 82 79 78 80 82 74 76 73 76 74 72 76 79 78 76 81 92 104 109 117 130 140 135 133 140 129 108 98
101 98 94 94 93 85 81 81 80 76 78 79 84 79 76 77 81 76 71 75 72 72 74 68 62 64 65 71 73 78 77 88 100 100 116 149 155 148 136 148 145 113 98
104 103 92 89 90 89 88 80 76 67 70 75 82 79 73 69 70 64 57 57 56 58 59 52 53 56 59 69 73 80 72 64 71 55 62 105 172 177 142 133 104 64 60
97 99 91 87 81 84 86 73 53 49 53 64 71 61 59 62 61 60 52 48 44 45 47 45 42 43 50 66 69 63 54 38 33 30 33 51 155 224 233 230 203 49 45
88 89 87 82 69 72 71 58 49 48 41 50 52 42 48 39 46 41 32 33 32 26 21 18 23 35 39 49 46 38 42 17 8 358 7 321 297 280 262 255 252 262 318
86 77 79 70 66 67 62 52 49 42 32 31 30 31 32 27 31 26 17 19 21 14 4 5 9 5 22 15 12 10 22 17 351 325 310 278 278 285 281 272 269 267 286
84 77 65 58 53 51 56 45 28 13 11 1 358 8 8 4 356 2 4 7 10 3 358 358 1 353 340 317 324 336 317 318 319 301 295 291 282 276 273 278 271 274 289
64 66 64 51 50 44 42 33 12 358 351 342 340 341 350 347 342 345 352 352 353 349 341 339 341 338 336 320 313 309 321 320 304 289 288 292 287 279 281 277 272 278 285
28 32 34 15 19 22 21 9 355 349 342 330 331 334 326 328 341 342 328 331 331 332 338 326 320 319 315 310 304 291 298 302 301 291 286 283 288 290 291 291 285 287 285
6 358 344 340 349 348 349 344 334 336 335 320 315 320 317 317 323 331 317 319 323 322 327 322 311 309 307 304 298 286 288 286 287 285 280 276 281 287 287 289 286 279 278
336 328 327 336 325 316 327 338 331 331 332 325 312 315 322 322 318 322 316 317 317 317 317 315 306 301 301 302 297 289 280 278 281 279 276 276 278 282 279 282 281 276 275
321 321 320 318 314 313 313 323 325 325 326 331 331 321 321 324 314 310 313 313 316 318 314 310 305 301 299 299 295 285 275 274 276 276 276 276 278 282 284 283 280 280 277
322 319 319 317 311 308 314 323 324 324 321 322 326 331 323 320 314 305 303 306 312 314 313 310 304 298 299 301 292 281 274 278 277 275 278 278 280 283 284 282 283 281 278
323 320 318 312 314 313 317 326 327 324 321 324 327 318 320 314 314 311 304 302 306 309 312 311 304 290 293 298 296 292 281 277 283 282 279 279 281 281 281 280 281 283 284
316 317 314 309 310 314 319 323 327 319 319 320 318 317 315 314 316 312 310 299 300 301 306 309 307 296 292 294 294 292 284 279 283 285 282 279 280 282 283 283 285 283 283
309 311 311 310 309 309 311 318 317 315 314 317 316 317 317 318 320 315 313 304 301 299 298 300 298 293 294 295 293 294 291 282 283 283 280 280 281 281 281 279 282 284 282
306 306 307 306 307 308 308 313 312 312 313 314 316 316 316 317 316 312 305 303 300 301 298 294 292 290 289 294 297 298 295 284 285 287 286 284 282 282 282 280 281 279 278
Height
5897 5896 5897 5897 5896 5896 5896 5895 5895 5895 5894 5894 5894 5894 5894 5894 5894 5894 5894 5894 5893 5893 5893 5893 5893 5893 5893 5893 5893 5893 5893 5894 5894 5894 5893 5893 5893 5893 5893 5893 5892 5892 5892
5899 5899 5899 5899 5898 5898 5898 5897 5897 5896 5896 5896 5896 5895 5895 5895 5895 5895 5895 5894 5894 5894 5894 5894 5894 5894 5894 5894 5894 5894 5894 5894 5894 5894 5894 5894 5894 5894 5893 5894 5893 5893 5893
5901 5901 5901 5901 5900 5900 5899 5899 5898 5898 5898 5897 5897 5897 5897 5896 5896 5896 5896 5896 5895 5895 5895 5895 5895 5895 5895 5895 5895 5895 5895 5895 5895 5895 5895 5894 5894 5894 5895 5895 5894 5894 5894
5902 5902 5902 5902 5902 5901 5901 5900 5900 5900 5899 5899 5899 5898 5898 5898 5897 5897 5897 5897 5897 5896 5896 5896 5896 5896 5896 5896 5896 5896 5896 5896 5896 5896 5896 5895 5895 5895 5895 5895 5895 5895 5895
5903 5903 5904 5903 5903 5903 5902 5902 5901 5901 5901 5900 5900 5900 5899 5899 5899 5898 5898 5898 5898 5898 5897 5897 5897 5897 5897 5897 5897 5897 5897 5897 5897 5897 5896 5896 5896 5896 5896 5896 5896 5896 5896
5905 5905 5905 5905 5904 5904 5903 5903 5903 5902 5902 5902 5901 5901 5900 5900 5900 5899 5899 5899 5899 5898 5898 5898 5898 5898 5898 5898 5897 5897 5897 5897 5897 5897 5897 5897 5897 5897 5897 5897 5897 5896 5896
5907 5907 5906 5906 5906 5905 5905 5904 5904 5904 5903 5903 5903 5902 5902 5901 5901 5900 5900 5900 5899 5899 5899 5899 5899 5899 5899 5898 5898 5898 5898 5898 5898 5898 5898 5898 5897 5897 5897 5897 5897 5897 5897
5908 5908 5908 5907 5907 5906 5906 5905 5905 5905 5905 5904 5904 5903 5903 5903 5902 5901 5901 5901 5900 5900 5900 5900 5899 5899 5899 5899 5899 5899 5899 5899 5898 5898 5898 5898 5898 5898 5898 5898 5898 5898 5898
5909 5909 5909 5908 5908 5907 5907 5906 5906 5906 5906 5905 5905 5904 5904 5904 5904 5903 5902 5902 5901 5901 5901 5901 5900 5900 5900 5900 5899 5899 5899 5899 5899 5899 5899 5899 5899 5899 5898 5898 5898 5898 5898
5910 5910 5910 5909 5909 5908 5908 5908 5907 5907 5907 5906 5906 5905 5905 5905 5904 5904 5903 5902 5902 5902 5902 5901 5901 5901 5901 5901 5900 5900 5900 5899 5899 5899 5899 5899 5899 5899 5899 5899 5899 5898 5898
5911 5911 5911 5911 5910 5910 5909 5908 5908 5908 5907 5907 5907 5906 5906 5905 5905 5905 5904 5904 5903 5903 5903 5902 5902 5902 5901 5901 5901 5900 5900 5900 5900 5899 5899 5899 5899 5899 5899 5899 5899 5898 5898
5912 5912 5912 5911 5911 5911 5910 5910 5909 5908 5908 5908 5908 5907 5906 5906 5906 5905 5905 5904 5904 5904 5903 5903 5902 5902 5902 5901 5901 5900 5900 5900 5900 5900 5899 5899 5899 5899 5899 5899 5898 5898 5899
5913 5913 5913 5912 5912 5912 5911 5911 5910 5910 5909 5909 5908 5908 5907 5907 5906 5906 5906 5905 5905 5904 5904 5903 5903 5903 5902 5901 5901 5901 5901 5900 5900 5900 5899 5899 5899 5899 5899 5899 5898 5898 5898
5914 5914 5914 5913 5913 5912 5912 5911 5911 5910 5910 5909 5909 5908 5908 5907 5907 5907 5906 5906 5905 5905 5904 5903 5903 5903 5902 5901 5901 5901 5901 5900 5900 5899 5899 5899 5899 5899 5898 5898 5898 5898 5898
5915 5915 5914 5914 5913 5913 5912 5912 5911 5911 5910 5910 5909 5909 5908 5908 5907 5907 5906 5906 5905 5905 5904 5904 5903 5902 5902 5901 5901 5901 5900 5900 5900 5899 5899 5899 5899 5898 5898 5898 5898 5898 5898
5916 5915 5915 5914 5914 5913 5913 5912 5912 5911 5910 5910 5909 5909 5908 5908 5907 5907 5906 5906 5905 5905 5904 5903 5903 5902 5901 5901 5901 5900 5900 5900 5899 5899 5899 5898 5898 5898 5898 5897 5897 5897 5897
5916 5916 5915 5915 5914 5914 5913 5912 5912 5911 5910 5909 5909 5909 5908 5908 5907 5906 5906 5905 5905 5904 5904 5903 5902 5902 5901 5901 5900 5900 5899 5899 5899 5899 5898 5898 5898 5897 5897 5897 5897 5897 5896
5917 5916 5916 5915 5915 5914 5913 5913 5912 5911 5910 5910 5909 5908 5908 5907 5906 5906 5906 5905 5904 5904 5903 5903 5902 5901 5901 5900 5900 5899 5899 5898 5898 5898 5898 5898 5897 5897 5897 5897 5896 5896 5896
5917 5917 5916 5916 5915 5914 5913 5913 5912 5911 5910 5909 5908 5908 5907 5906 5906 5905 5905 5905 5904 5903 5903 5902 5901 5900 5900 5899 5899 5898 5898 5897 5897 5897 5897 5897 5897 5896 5896 5896 5896 5895 5895
5918 5917 5916 5915 5914 5914 5913 5912 5911 5911 5909 5909 5908 5908 5907 5906 5905 5905 5905 5904 5903 5903 5902 5901 5900 5899 5899 5898 5897 5897 5897 5896 5896 5896 5896 5896 5896 5895 5895 5895 5895 5894 5894
5917 5917 5916 5915 5914 5913 5912 5912 5911 5910 5909 5908 5908 5907 5906 5905 5905 5904 5904 5903 5902 5901 5900 5899 5899 5898 5897 5897 5896 5896 5895 5895 5895 5895 5895 5895 5895 5894 5894 5894 5893 5893 5893
5917 5916 5915 5914 5913 5912 5912 5911 5910 5909 5908 5907 5907 5906 5906 5905 5904 5903 5903 5902 5901 5900 5899 5898 5897 5897 5896 5896 5895 5895 5895 5895 5894 5894 5894 5894 5893 5893 5893 5892 5892 5891 5891
5916 5915 5915 5914 5913 5912 5911 5910 5909 5908 5907 5907 5906 5906 5905 5904 5903 5902 5901 5900 5900 5899 5898 5897 5896 5896 5896 5895 5894 5894 5894 5894 5893 5893 5892 5892 5892 5891 5891 5890 5890 5889 5889
5915 5914 5914 5913 5912 5911 5910 5910 5909 5908 5907 5906 5905 5905 5904 5903 5902 5900 5899 5899 5898 5897 5896 5896 5895 5895 5894 5894 5893 5892 5892 5892 5892 5891 5891 5890 5889 5889 5888 5888 5888 5887 5887
5914 5913 5913 5912 5911 5910 5909 5909 5908 5907 5906 5905 5905 5904 5903 5902 5901 5899 5898 5897 5897 5896 5895 5894 5894 5893 5893 5892 5891 5891 5890 5890 5890 5889 5889 5888 5888 5887 5886 5886 5885 5884 5884
5913 5912 5912 5911 5910 5909 5908 5907 5906 5906 5905 5904 5904 5902 5901 5900 5899 5898 5897 5896 5895 5894 5894 5893 5892 5891 5891 5891 5890 5889 5889 5888 5887 5887 5886 5886 5885 5884 5883 5883 5882 5882 5881